This is the latest recevied weather packets stored in our database for station/object KD8BMB. If no packets are shown the sender has not sent any weather packets the latest 1 day(s).
| Time | Temp. | Humidity | Pressure | Rain* | Wind** | Luminosity | Snow |
|---|---|---|---|---|---|---|---|
| 1778053250 | 6.11° C | 92% | 1008.9 hPa | 0 mm | - | 0 W/m² | - |
| 1778052342 | 6.67° C | 91% | 1009.2 hPa | 0 mm | - | 0 W/m² | - |
| 1778051737 | 6.67° C | 90% | 1009.3 hPa | 0 mm | - | 0 W/m² | - |
| 1778049615 | 7.22° C | 88% | 1008.7 hPa | 0 mm | - | 0 W/m² | - |
| 1778049011 | 7.22° C | 87% | 1008.9 hPa | 0 mm | - | 0 W/m² | - |
| 1778048709 | 7.22° C | 86% | 1009 hPa | 0 mm | - | 0 W/m² | - |
| 1778047194 | 7.78° C | 82% | 1008.9 hPa | 0 mm | - | 0 W/m² | - |
| 1778046588 | 7.78° C | 80% | 1008.9 hPa | 0 mm | - | 0 W/m² | - |
| 1778046285 | 7.78° C | 79% | 1008.8 hPa | 0 mm | - | 0 W/m² | - |
| 1778045679 | 7.78° C | 77% | 1008.8 hPa | 0 mm | - | 0 W/m² | - |
| 1778045377 | 7.78° C | 76% | 1008.8 hPa | 0 mm | - | 0 W/m² | - |
| 1778044469 | 7.78° C | 73% | 1008.8 hPa | 0 mm | - | 0 W/m² | - |
| 1778044166 | 7.78° C | 70% | 1008.8 hPa | 0 mm | - | 0 W/m² | - |
| 1778043864 | 8.33° C | 67% | 1009 hPa | 0 mm | - | 0 W/m² | - |
| 1778043561 | 7.78° C | 67% | 1009 hPa | 0 mm | - | 0 W/m² | - |
| 1778043258 | 8.33° C | 65% | 1009 hPa | 0 mm | - | 0 W/m² | - |
| 1778042954 | 8.33° C | 65% | 1009.1 hPa | 0 mm | - | 0 W/m² | - |
| 1778042349 | 8.33° C | 65% | 1008.5 hPa | 0 mm | - | 0 W/m² | - |
| 1778040838 | 8.33° C | 65% | 1008.4 hPa | 0 mm | - | 0 W/m² | - |
| 1778040233 | 8.33° C | 66% | 1008.7 hPa | 0 mm | - | 0 W/m² | - |
| 1778039929 | 8.33° C | 65% | 1008.7 hPa | 0 mm | - | 0 W/m² | - |
| 1778038717 | 8.33° C | 65% | 1008.7 hPa | 0 mm | - | 0 W/m² | - |
| 1778038111 | 8.33° C | 65% | 1008.5 hPa | 0 mm | - | 0 W/m² | - |
| 1778037808 | 8.33° C | 64% | 1008.2 hPa | 0 mm | - | 0 W/m² | - |
| 1778037505 | 8.33° C | 63% | 1008.5 hPa | 0 mm | - | 0 W/m² | - |
* Rain latest hour (hover to see other rain measurements)
** Current wind speed in m/s (hover to see current wind gust speed)